Moab, UT

4:22 AM MDT on April 19, 2018 (GMT -0600)
Canyonlands

Weather History for KCNY - January, 2014

Change the Weather History Date:

Monday, January 27, 2014

  Actual Average Record
Temperature  
Mean Temperature 32 °F 29 °F  
Max Temperature 44 °F 41 °F 66 °F (1970)
Min Temperature 20 °F 18 °F -6 °F (1937)
Degree Days  
Heating Degree Days 33 36  
Month to date heating degree days 1092 1038  
Since 1 July heating degree days 3911 3435  
Cooling Degree Days 0 0  
Month to date cooling degree days 0 0  
Year to date cooling degree days 0 0  
Moisture  
Dew Point 23 °F    
Average Humidity 73    
Maximum Humidity 92    
Minimum Humidity 53    
Precipitation  
Precipitation 0.00 in 0.01 in 0.30 in (1958)
Month to date precipitation T 0.57  
Year to date precipitation T 0.57  
Sea Level Pressure  
Sea Level Pressure 30.05 in    
Wind  
Wind Speed 4 mph (NW)    
Max Wind Speed 12 mph    
Max Gust Speed 14 mph    
Visibility 10 miles    
Events      
T = Trace of Precipitation, MM = Missing Value Source: NWS Daily Summary

Daily Weather History Graph

Daily Weather History Graph

Search for Another Location

Airport or City:

Trip Planner

Search our weather history database for the weather conditions in past years. The results will help you decide how hot, cold, wet, or windy it might be!

Date:

Astronomy

Jan. 27, 2014 Rise Set
Actual Time 7:28 AM MST 5:35 PM MST
Civil Twilight 7:00 AM MST 6:03 PM MST
Nautical Twilight 6:28 AM MST 6:35 PM MST
Astronomical Twilight 5:57 AM MST 7:06 PM MST
Moon 4:13 AM MST (1/27) 2:24 PM MST (1/27)
Length of Visible Light 11h 02m
Length of Day
10h 06m
Waning Crescent, 14% of the Moon is Illuminated
Jan 27
Waning Crescent
Jan 30
New
Feb 6
First Quarter
Feb 14
Full
Feb 22
Last Quarter

Hourly Weather History & Observations

Time (MST) Temp. Windchill Dew Point Humidity Pressure Visibility Wind Dir Wind Speed Gust Speed Precip Events Conditions
12:53 AM 24.1 °F 19.7 °F 21.0 °F 88% 30.07 in 10.0 mi SW 3.5 mph - N/A   Clear
1:53 AM 24.1 °F - 21.0 °F 88% 30.06 in 10.0 mi Calm Calm - N/A   Clear
2:53 AM 25.0 °F - 21.0 °F 85% 30.06 in 10.0 mi Calm Calm - N/A   Clear
3:53 AM 21.9 °F 17.2 °F 19.0 °F 89% 30.07 in 10.0 mi WSW 3.5 mph - N/A   Clear
4:53 AM 23.0 °F - 19.0 °F 85% 30.08 in 10.0 mi Calm Calm - N/A   Clear
5:53 AM 23.0 °F - 19.0 °F 85% 30.07 in 10.0 mi Calm Calm - N/A   Clear
6:53 AM 21.9 °F 14.5 °F 19.0 °F 89% 30.10 in 10.0 mi West 5.8 mph - N/A   Clear
7:53 AM 21.9 °F - 19.0 °F 89% 30.12 in 10.0 mi Calm Calm - N/A   Clear
8:53 AM 26.1 °F - 21.9 °F 84% 30.12 in 10.0 mi Calm Calm - N/A   Clear
9:53 AM 30.9 °F - 23.0 °F 72% 30.11 in 10.0 mi Calm Calm - N/A   Clear
10:53 AM 33.1 °F 28.7 °F 24.1 °F 70% 30.10 in 10.0 mi NW 4.6 mph - N/A   Clear
11:53 AM 34.0 °F 29.8 °F 21.9 °F 61% 30.09 in 10.0 mi WNW 4.6 mph - N/A   Clear
12:53 PM 37.9 °F - 23.0 °F 55% 30.03 in 10.0 mi Calm Calm - N/A   Clear
1:53 PM 39.0 °F 32.8 °F 27.0 °F 62% 30.00 in 10.0 mi NNW 9.2 mph - N/A   Clear
2:53 PM 41.0 °F 38.0 °F 26.1 °F 55% 29.97 in 10.0 mi NNW 4.6 mph - N/A   Clear
3:53 PM 43.0 °F 40.3 °F 27.0 °F 53% 29.96 in 10.0 mi North 4.6 mph - N/A   Clear
4:53 PM 41.0 °F 38.0 °F 28.0 °F 60% 29.96 in 10.0 mi West 4.6 mph - N/A   Clear
5:53 PM 36.0 °F 29.0 °F 27.0 °F 70% 29.98 in 10.0 mi NNW 9.2 mph - N/A   Clear
6:53 PM 33.1 °F 28.7 °F 26.1 °F 75% 30.01 in 10.0 mi North 4.6 mph - N/A   Clear
7:53 PM 33.1 °F - 26.1 °F 75% 30.05 in 10.0 mi Calm Calm - N/A   Clear
8:53 PM 33.1 °F 24.9 °F 25.0 °F 72% 30.04 in 10.0 mi NW 10.4 mph - N/A   Clear
9:53 PM 32.0 °F 23.6 °F 24.1 °F 73% 30.05 in 10.0 mi NW 10.4 mph - N/A   Clear
10:53 PM 33.1 °F 27.7 °F 23.0 °F 66% 30.07 in 10.0 mi North 5.8 mph - N/A   Clear
11:53 PM 33.1 °F 26.9 °F 23.0 °F 66% 30.08 in 10.0 mi SSW 6.9 mph - N/A   Clear